Regional Weather Roundup
Issued by NWS

Home | Current Version | Previous Version | Text Only | Print | Product List | Glossary Off
Versions: 1 2 3 4 5 6 7 8 9 10 11 12 13 14 15 16 17 18 19 20 21 22 23 24 25 26 27 28 29 30 31 32 33 34 35 36 37 38 39 40 41 42 43 44 45 46 47 48 49 50

000
ASUS43 KLSX 241557
RWRMO

WEATHER SUMMARY FOR MISSOURI
NATIONAL WEATHER SERVICE SPRINGFIELD MO
1100 AM CDT WED MAY 24 2017

NOTE: "FAIR" INDICATES FEW OR NO CLOUDS BELOW 12,000 FEET WITH NO
       SIGNIFICANT WEATHER AND/OR OBSTRUCTIONS TO VISIBILITY.
       CURRENT SKY AND/OR WEATHER CONDITIONS ARE NOT AVAILABLE FOR
       CHILLICOTHE AND FARMINGTON.

MOZ001>031-035>038-043-044-053-054-241700-
...NORTHERN AND WESTERN MISSOURI...

CITY           SKY/WX    TMP DP  RH WIND       PRES   REMARKS
KANSAS CTY INT CLOUDY    56  49  77 N13       29.71S
LEE`S SUMMIT   CLOUDY    54  51  90 NW16      29.70F
ST JOSEPH      PTSUNNY   60  51  72 N16       29.71F
CHILLICOTHE      N/A     59  51  75 VRB5      29.67F

$$
MOZ066>068-077>081-088>096-101>105-241700-
...SOUTHWEST MISSOURI...

CITY           SKY/WX    TMP DP  RH WIND       PRES   REMARKS
SPRINGFIELD    CLOUDY    56  44  64 NW12G21   29.68F
JOPLIN         PTSUNNY   60  48  64 NW12      29.73F
BRANSON        PTSUNNY   57  45  62 W9G21     29.70S

$$
MOZ032>034-039>042-045>050-055>058-069>072-241700-
...CENTRAL MISSOURI...

CITY           SKY/WX    TMP DP  RH WIND       PRES   REMARKS
COLUMBIA       NOT AVBL
JEFFERSON CITY PTSUNNY   61  48  62 W15G22    29.63F
ROLLA          PTSUNNY   56  47  71 NW10      29.62F
SEDALIA        PTSUNNY   60  51  72 N12       29.67F
WARRENSBURG    CLOUDY    54  50  87 NW9       29.68F
OSAGE BEACH    LGT RAIN  55  46  71 VRB7G17   29.66F

$$
MOZ051-052-059>065-241700-
...EAST CENTRAL MISSOURI...

CITY           SKY/WX    TMP DP  RH WIND       PRES   REMARKS
ST LOUIS INTL  PTSUNNY   64  50  60 NW12      29.58F

$$
MOZ072>076-082>087-097>100-106>115-241700-
...SOUTH CENTRAL AND SOUTHEAST MISSOURI...

CITY           SKY/WX    TMP DP  RH WIND       PRES   REMARKS
CAPE GIRARDEAU PTSUNNY   67  49  52 NW15      29.55F
POPLAR BLUFF   PTSUNNY   64  52  64 NW13      29.57F
WEST PLAINS    PTSUNNY   59  46  62 NW9G18    29.64F

$$



USA.gov is the U.S. government's official web portal to all federal, state and local government web resources and services.